Time_in_sec,Latitude,Longitude,Altitude,Nbsat_max_qualitysignal,Nbsat_locked,valid_data
1326899677.16852641,47.37639999,8.55024719,509.98388672,1,5,1
1326899765.81750083,47.37644196,8.55023956,510.44873047,4,5,1
1326899765.86948586,47.37644196,8.55023956,510.41680908,4,5,1
1326899765.92149591,47.37643814,8.55024052,510.27023315,4,5,1
1326899765.96953893,47.37643814,8.55023956,510.23779297,4,5,1
1326899766.02063084,47.37643814,8.55023956,510.20529175,4,5,1
1326899766.06948304,47.37643814,8.55023956,510.17276001,4,5,1
1326899766.11725879,47.37643814,8.55023956,510.14019775,4,5,1
1326899766.16949701,47.37643814,8.55024052,509.99615479,4,5,1
1326899766.21724367,47.37643814,8.55024052,509.96310425,4,5,1
1326899766.26854706,47.37643814,8.55024052,509.92999268,4,5,1
1326899766.31759953,47.37643814,8.55024052,509.89685059,4,5,1
1326899766.36849546,47.37643814,8.55024052,509.86367798,4,5,1
1326899766.42052650,47.37643814,8.55024147,509.72274780,4,5,1
1326899766.46950483,47.37643814,8.55024147,509.68908691,4,5,1
1326899766.51709962,47.37643814,8.55024147,509.65536499,4,5,1
1326899766.56960654,47.37643814,8.55024147,509.62161255,4,5,1
1326899766.61712241,47.37643814,8.55024147,509.58779907,4,5,1
1326899766.66863680,47.37643814,8.55024242,509.46191406,4,5,1
1326899766.71750903,47.37643814,8.55024242,509.42767334,4,5,1
1326899766.76920724,47.37643814,8.55024242,509.39343262,4,5,1
1326899766.81803870,47.37643814,8.55024242,509.35910034,4,5,1
1326899766.86951375,47.37643814,8.55024242,509.32473755,4,5,1
1326899766.91699386,47.37643814,8.55024242,509.21316528,4,5,1
1326899766.96950722,47.37643814,8.55024242,509.17846680,4,5,1
1326899767.02093697,47.37643814,8.55024242,509.14373779,4,5,1
1326899767.06863761,47.37643814,8.55024242,509.10897827,4,5,1
1326899767.11751294,47.37643814,8.55024242,509.07415771,4,5,1
1326899767.16859460,47.37643814,8.55024242,508.97024536,4,5,1
1326899767.21764088,47.37643814,8.55024242,508.93511963,4,5,1
1326899767.26950622,47.37643814,8.55024242,508.89993286,4,5,1
1326899767.31770015,47.37643814,8.55024242,508.86468506,4,5,1
1326899767.36949396,47.37643814,8.55024242,508.82940674,4,5,1
1326899767.41763425,47.37643814,8.55024242,508.74136353,4,5,1
1326899767.46863866,47.37643814,8.55024242,508.70584106,4,5,1
1326899767.51753807,47.37643814,8.55024242,508.67025757,4,5,1
1326899767.56965351,47.37643814,8.55024242,508.63461304,4,5,1
1326899767.61773515,47.37643814,8.55024242,508.59896851,4,5,1
1326899767.66953826,47.37644196,8.55024338,508.52590942,4,5,1
1326899767.71767545,47.37644196,8.55024338,508.49002075,4,5,1
1326899767.76950192,47.37644196,8.55024338,508.45413208,4,5,1
1326899767.81674170,47.37644196,8.55024338,508.41818237,4,5,1
1326899767.86853862,47.37644196,8.55024338,508.38220215,4,5,1
1326899767.91751504,47.37644196,8.55024338,508.31790161,4,5,1
1326899767.96915555,47.37644196,8.55024338,508.28170776,4,5,1
1326899768.01892376,47.37644196,8.55024338,508.24548340,4,5,1
1326899768.07253289,47.37644196,8.55024338,508.20919800,4,5,1
1326899768.11902380,47.37644196,8.55024338,508.17288208,4,5,1
1326899768.16873527,47.37644196,8.55024338,508.12603760,4,5,1
1326899768.22063208,47.37644196,8.55024338,508.08959961,4,5,1
1326899768.26894450,47.37644196,8.55024338,508.05313110,4,5,1
1326899768.31760788,47.37644196,8.55024338,508.01660156,4,5,1
1326899768.36867094,47.37644196,8.55024338,507.98001099,4,5,1
1326899768.41753674,47.37644196,8.55024338,507.94699097,4,5,1
1326899768.46905565,47.37644196,8.55024338,507.91033936,4,5,1
1326899768.51812172,47.37644196,8.55024338,507.87365723,4,5,1
1326899768.56913376,47.37644196,8.55024338,507.83691406,4,5,1
1326899768.62143731,47.37644196,8.55024338,507.80010986,4,5,1
1326899768.66935039,47.37644196,8.55024338,507.78225708,4,5,1
1326899768.71751642,47.37644196,8.55024338,507.74548340,4,5,1
1326899768.76970959,47.37644196,8.55024338,507.70867920,4,5,1
1326899768.82153893,47.37644196,8.55024338,507.67184448,4,5,1
1326899768.86932206,47.37644196,8.55024338,507.63494873,4,5,1
1326899768.92151976,47.37644196,8.55024338,507.63247681,4,5,1
1326899768.96950293,47.37644196,8.55024338,507.59564209,4,5,1
1326899769.02061343,47.37644196,8.55024338,507.55874634,4,5,1
1326899769.06850672,47.37644196,8.55024338,507.52182007,4,5,1
1326899769.11749697,47.37644196,8.55024338,507.48483276,4,5,1
1326899769.16856647,47.37644196,8.55024338,507.49157715,4,5,1
1326899769.21736765,47.37644196,8.55024338,507.45471191,4,5,1
1326899769.26954341,47.37644196,8.55024338,507.41775513,4,5,1
1326899769.31774521,47.37644196,8.55024338,507.38076782,4,5,1
1326899769.36949134,47.37644196,8.55024338,507.34375000,4,5,1
1326899769.41753340,47.37644196,8.55024433,507.36361694,4,5,1
1326899769.46953034,47.37644196,8.55024433,507.32678223,4,5,1
1326899769.51749563,47.37644196,8.55024433,507.28988647,4,5,1
1326899769.56953335,47.37644196,8.55024433,507.25292969,4,5,1
1326899769.62151527,47.37644196,8.55024433,507.21591187,4,5,1
1326899769.66899991,47.37644577,8.55024433,507.25164795,4,5,1
1326899769.71763062,47.37644577,8.55024433,507.21490479,4,5,1
1326899769.76949072,47.37644577,8.55024433,507.17810059,4,5,1
1326899769.81710076,47.37644577,8.55024433,507.14123535,4,5,1
1326899769.86965251,47.37644577,8.55024338,507.10437012,4,5,1
1326899769.91752148,47.37644577,8.55024433,507.15838623,4,5,1
1326899769.96964908,47.37644577,8.55024433,507.12182617,4,5,1
1326899770.02062798,47.37644577,8.55024433,507.08520508,4,5,1
1326899770.06952739,47.37644577,8.55024433,507.04855347,4,5,1
1326899770.11763358,47.37644577,8.55024433,507.01184082,4,5,1
1326899770.16953683,47.37644577,8.55024433,507.08395386,4,5,1
1326899770.21688247,47.37644577,8.55024433,507.04766846,4,5,1
1326899770.26887655,47.37644577,8.55024433,507.01132202,4,5,1
1326899770.32056379,47.37644577,8.55024433,506.97494507,4,5,1
1326899770.36884880,47.37644577,8.55024433,506.93850708,4,5,1
1326899770.41765332,47.37644577,8.55024338,507.02383423,4,5,1
1326899770.46951747,47.37644577,8.55024338,506.98782349,4,5,1
1326899770.52082348,47.37644577,8.55024338,506.95181274,4,5,1
1326899770.56957555,47.37644577,8.55024338,506.91571045,4,5,1
1326899770.61752176,47.37644577,8.55024338,506.87960815,4,5,1
1326899770.66963482,47.37644577,8.55024338,506.97970581,4,5,1
1326899770.71669030,47.37644577,8.55024338,506.94406128,4,5,1
1326899770.76854539,47.37644577,8.55024338,506.90841675,4,5,1
1326899770.81765747,47.37644577,8.55024338,506.87268066,4,5,1
1326899770.86969233,47.37644577,8.55024338,506.83691406,4,5,1
1326899770.92060494,47.37644577,8.55024338,506.95452881,4,5,1
1326899770.96949458,47.37644577,8.55024338,506.91937256,4,5,1
1326899771.02063060,47.37644577,8.55024338,506.88415527,4,5,1
1326899771.07248187,47.37644577,8.55024338,506.84890747,4,5,1
1326899771.11753631,47.37644577,8.55024338,506.81359863,4,5,1
1326899771.16955566,47.37644577,8.55024338,506.95269775,4,5,1
1326899771.22063422,47.37644577,8.55024338,506.91802979,4,5,1
1326899771.26947784,47.37644577,8.55024338,506.88336182,4,5,1
1326899771.31806993,47.37644577,8.55024338,506.84860229,4,5,1
1326899771.36950111,47.37644577,8.55024338,506.81384277,4,5,1
1326899771.41755962,47.37644577,8.55024338,506.95297241,4,5,1
1326899771.46853352,47.37644577,8.55024338,506.94018555,4,5,1
1326899771.51751161,47.37644577,8.55024338,506.90609741,4,5,1
1326899771.56945491,47.37644577,8.55024338,506.87197876,4,5,1
1326899771.62055993,47.37644577,8.55024242,506.83782959,4,5,1
1326899771.66864324,47.37644577,8.55024242,507.01077271,4,5,1
1326899771.71755290,47.37644577,8.55024242,506.97738647,4,5,1
1326899771.76947880,47.37644577,8.55024242,506.94393921,4,5,1
1326899771.81731892,47.37644577,8.55024242,506.91046143,4,5,1
1326899771.86853862,47.37644577,8.55024242,506.87692261,4,5,1
1326899771.91751075,47.37644958,8.55024147,507.05004883,4,5,1
1326899771.96863127,47.37644958,8.55024147,507.03567505,4,5,1
1326899772.01751113,47.37644958,8.55024147,507.00292969,4,5,1
1326899772.06922889,47.37644958,8.55024147,506.97012329,4,5,1
1326899772.11750793,47.37644958,8.55024147,506.93725586,4,5,1
1326899772.16949654,47.37644958,8.55024147,507.14862061,4,5,1
1326899772.21711469,47.37644958,8.55024147,507.11666870,4,5,1
1326899772.26853752,47.37644958,8.55024147,507.08468628,4,5,1
1326899772.31758928,47.37644958,8.55024147,507.05264282,4,5,1
1326899772.36849046,47.37644958,8.55024147,507.02056885,4,5,1
1326899772.41765451,47.37645340,8.55024147,507.24145508,4,5,1
1326899772.46958327,47.37645340,8.55024147,507.22720337,4,5,1
1326899772.51765513,47.37645340,8.55024147,507.19607544,4,5,1
1326899772.56949759,47.37645340,8.55024147,507.16491699,4,5,1
1326899772.62064838,47.37645340,8.55024147,507.13369751,4,5,1
1326899772.66851306,47.37645340,8.55024147,507.40420532,4,5,1
1326899772.71751356,47.37645340,8.55024147,507.37411499,4,5,1
1326899772.76864624,47.37645340,8.55024147,507.34396362,4,5,1
1326899772.82085109,47.37645340,8.55024147,507.31375122,4,5,1
1326899772.86865640,47.37645340,8.55024147,507.28350830,4,5,1
1326899772.92065573,47.37645721,8.55024052,507.56332397,4,5,1
1326899772.96950245,47.37645721,8.55024147,507.55474854,4,5,1
1326899773.02062321,47.37645721,8.55024147,507.52569580,4,5,1
1326899773.06862307,47.37645721,8.55024147,507.49661255,4,5,1
1326899773.11751723,47.37645721,8.55024052,507.46746826,4,5,1
1326899773.16949844,47.37645721,8.55024052,507.77157593,4,5,1
1326899773.21699643,47.37645721,8.55024052,507.76290894,4,5,1
1326899773.26950812,47.37645721,8.55024052,507.73501587,4,5,1
1326899773.31773520,47.37645721,8.55024052,507.70706177,4,5,1
1326899773.36886001,47.37645721,8.55024052,507.67910767,4,5,1
1326899773.41685581,47.37646103,8.55023956,507.99969482,4,5,1
1326899773.46953678,47.37646103,8.55023956,507.99316406,4,5,1
1326899773.51751947,47.37646103,8.55023956,507.96652222,4,5,1
1326899773.56964493,47.37646103,8.55023956,507.93984985,4,5,1
1326899773.62552643,47.37646103,8.55023956,507.91314697,4,5,1
1326899773.66871476,47.37646103,8.55023956,508.25909424,4,5,1
1326899773.72065735,47.37646103,8.55023956,508.23376465,4,5,1
1326899773.76950955,47.37646103,8.55023956,508.20837402,4,5,1
1326899773.81665325,47.37646103,8.55023956,508.18298340,4,5,1
1326899773.86955762,47.37646103,8.55023956,508.15753174,4,5,1
1326899773.92330337,47.37646484,8.55023861,508.47952271,4,5,1
1326899773.96771026,47.37646103,8.55023861,508.47256470,4,5,1
1326899774.02062225,47.37646103,8.55023861,508.44842529,4,5,1
1326899774.06955647,47.37646103,8.55023861,508.42425537,4,5,1
1326899774.12061405,47.37646484,8.55023861,508.40005493,4,5,1
1326899774.16948128,47.37646484,8.55023766,508.71643066,4,5,1
1326899774.22146654,47.37646484,8.55023861,508.71697998,4,5,1
1326899774.26856780,47.37646484,8.55023861,508.69409180,4,5,1
1326899774.31757450,47.37646484,8.55023861,508.67114258,4,5,1
1326899774.36953688,47.37646484,8.55023861,508.64813232,4,5,1
1326899774.42055440,47.37646484,8.55023861,508.97680664,4,5,1
1326899774.46952319,47.37646484,8.55023861,508.95510864,4,5,1
1326899774.52055073,47.37646484,8.55023861,508.93338013,4,5,1
1326899774.56959534,47.37646484,8.55023861,508.91159058,4,5,1
1326899774.61744165,47.37646484,8.55023861,508.88977051,4,5,1
1326899774.66863418,47.37646484,8.55023861,509.20681763,4,5,1
1326899774.71759033,47.37646484,8.55023861,509.18624878,4,5,1
1326899774.76955962,47.37646484,8.55023861,509.16561890,4,5,1
1326899774.81743574,47.37646484,8.55023861,509.14495850,4,5,1
1326899774.86953712,47.37646484,8.55023861,509.12423706,4,5,1
1326899774.91742992,47.37646484,8.55023861,509.43569946,4,5,1
1326899774.96953988,47.37646484,8.55023766,509.41619873,4,5,1
1326899775.01721787,47.37646484,8.55023766,509.39666748,4,5,1
1326899775.06855154,47.37646484,8.55023766,509.37710571,4,5,1
1326899775.12052870,47.37646484,8.55023766,509.35751343,4,5,1
1326899775.16943717,47.37646866,8.55023766,509.65756226,4,5,1
1326899775.21754003,47.37646866,8.55023766,509.63912964,4,5,1
1326899775.26967478,47.37646866,8.55023766,509.62066650,4,5,1
1326899775.31764436,47.37646866,8.55023766,509.60217285,4,5,1
1326899775.36948061,47.37646866,8.55023766,509.58364868,4,5,1
1326899775.41714954,47.37646866,8.55023861,509.87918091,4,5,1
1326899775.46952367,47.37646866,8.55023861,509.86184692,4,5,1
1326899775.52158928,47.37646866,8.55023766,509.84445190,4,5,1
1326899775.57169223,47.37646866,8.55023766,509.82699585,4,5,1
1326899775.62151265,47.37646866,8.55023766,509.80950928,4,4,1
1326899775.66905713,47.37646866,8.55023956,510.10287476,4,4,1
1326899775.72163367,47.37646866,8.55023956,510.08654785,4,4,1
1326899775.76949620,47.37646866,8.55023861,510.07015991,4,4,1
1326899775.81765270,47.37646866,8.55023861,510.05374146,4,4,1
1326899775.86964464,47.37646866,8.55023861,510.03729248,4,4,1
1326899775.91756487,47.37646866,8.55023956,510.32604980,4,4,1
1326899775.96856332,47.37646866,8.55023956,510.31069946,4,4,1
1326899776.01689744,47.37646866,8.55023956,510.29531860,4,4,1
1326899776.06977868,47.37646866,8.55023956,510.27990723,4,4,1
1326899776.12159038,47.37647247,8.55023956,510.26443481,4,4,1
1326899776.16952181,47.37647247,8.55024052,510.55087280,4,4,1
1326899776.22159076,47.37647247,8.55024052,510.53649902,4,4,1
1326899776.26956940,47.37647247,8.55023956,510.52209473,4,4,1
1326899776.31765032,47.37647247,8.55023956,510.50765991,4,4,1
1326899776.36956143,47.37647247,8.55023956,510.49316406,4,4,1
1326899776.42068505,47.37647247,8.55024052,510.77539062,4,4,1
1326899776.46956444,47.37647247,8.55024052,510.76202393,4,4,1
1326899776.52057266,47.37647247,8.55024052,510.74856567,4,4,1
1326899776.56953025,47.37647247,8.55024052,510.73507690,4,4,1
1326899776.61763048,47.37647247,8.55024052,510.72152710,4,4,1
1326899776.66964412,47.37647247,8.55024147,510.99917603,4,4,1
1326899776.71755314,47.37647247,8.55024147,510.98672485,4,4,1
1326899776.76866698,47.37647629,8.55024052,510.97421265,4,4,1
1326899776.82589626,47.37647629,8.55024052,510.96166992,4,4,1
1326899776.86952257,47.37647629,8.55024052,510.94906616,4,4,1
1326899776.92152238,47.37647247,8.55024147,511.21563721,4,4,1
1326899776.96948886,47.37647247,8.55024147,511.20407104,4,4,1
1326899777.02067041,47.37647629,8.55024147,511.19247437,4,4,1
1326899777.06948042,47.37647629,8.55024147,511.18084717,4,4,1
1326899777.11756349,47.37647629,8.55024147,511.16915894,4,4,1
1326899777.16947913,47.37647629,8.55024147,511.42507935,4,4,1
1326899777.21752954,47.37647629,8.55024147,511.41439819,4,4,1
1326899777.26949573,47.37647629,8.55024147,511.40365601,4,4,1
1326899777.31755257,47.37647629,8.55024052,511.39288330,4,4,1
1326899777.36950970,47.37647629,8.55024052,511.38204956,4,4,1
1326899777.42052603,47.37647629,8.55024147,511.62762451,4,4,1
1326899777.46952295,47.37647629,8.55024052,511.61773682,4,4,1
1326899777.51753402,47.37647629,8.55024052,511.60781860,4,4,1
1326899777.56956196,47.37647629,8.55024052,511.59786987,4,4,1
1326899777.62051749,47.37647629,8.55024052,511.58789062,4,5,1
1326899777.66934371,47.37647629,8.55024147,511.81692505,4,5,1
1326899777.72055888,47.37647629,8.55024147,511.80783081,4,5,1
1326899777.76949453,47.37647629,8.55024147,511.79864502,4,5,1
1326899777.82162833,47.37647629,8.55024147,511.78942871,4,5,1
1326899777.86955357,47.37647629,8.55024147,511.78018188,4,5,1
1326899777.91751027,47.37647629,8.55024242,511.99304199,4,5,1
1326899777.96937823,47.37647629,8.55024147,511.98458862,4,5,1
1326899778.02575064,47.37647629,8.55024147,511.97610474,4,5,1
1326899778.06948853,47.37647629,8.55024147,511.96755981,4,5,1
1326899778.12055182,47.37647629,8.55024147,511.95898438,4,5,1
1326899778.16949511,47.37647629,8.55024242,512.15539551,4,5,1
1326899778.22053480,47.37647629,8.55024242,512.14752197,4,5,1
1326899778.26956391,47.37647629,8.55024242,512.13964844,4,5,1
1326899778.31781864,47.37647629,8.55024242,512.13165283,4,5,1
1326899778.36968637,47.37647629,8.55024242,512.12365723,4,5,1
1326899778.41760445,47.37647629,8.55024338,512.31121826,4,5,1
1326899778.46907926,47.37647629,8.55024338,512.30389404,4,5,1
1326899778.51768947,47.37647629,8.55024242,512.29650879,4,5,1
1326899778.56950855,47.37647629,8.55024242,512.28912354,4,5,1
1326899778.61724925,47.37647629,8.55024242,512.28167725,4,5,1
1326899778.66865015,47.37647247,8.55024338,512.45080566,4,5,1
1326899778.71773338,47.37647247,8.55024338,512.44396973,4,5,1
1326899778.76856971,47.37647629,8.55024338,512.43707275,4,5,1
1326899778.82552814,47.37647629,8.55024338,512.43017578,4,5,1
1326899778.86875701,47.37647629,8.55024338,512.42321777,4,5,1
1326899778.91755199,47.37647247,8.55024433,512.58160400,4,5,1
1326899778.96949053,47.37647247,8.55024433,512.57525635,4,5,1
1326899779.02096534,47.37647247,8.55024433,512.56884766,4,5,1
1326899779.06917930,47.37647247,8.55024433,512.56243896,4,5,1
1326899779.11748672,47.37647247,8.55024433,512.55590820,4,5,1
1326899779.16882849,47.37647247,8.55024529,512.70617676,4,5,1
1326899779.22952032,47.37647247,8.55024529,512.70025635,4,5,1
1326899779.26882696,47.37647247,8.55024529,512.69427490,4,5,1
1326899779.31761003,47.37647247,8.55024433,512.68823242,4,5,1
1326899779.36949444,47.37647247,8.55024433,512.68218994,4,5,1
1326899779.42956591,47.37647247,8.55024624,512.82446289,4,5,1
1326899779.46880960,47.37647247,8.55024624,512.81781006,4,5,1
1326899779.51751947,47.37647247,8.55024624,512.81329346,4,5,1
1326899779.56866527,47.37647247,8.55024624,512.80761719,4,5,1
1326899779.61751437,47.37647247,8.55024624,512.80194092,3,5,1
1326899779.66865921,47.37647247,8.55024719,512.93939209,3,5,1
1326899779.71749711,47.37647247,8.55024719,512.93426514,3,5,1
1326899779.76953602,47.37647247,8.55024624,512.92901611,3,5,1
1326899779.82065821,47.37647247,8.55024624,512.92376709,3,5,1
1326899779.86855555,47.37647247,8.55024624,512.91845703,3,5,1
1326899779.92153120,47.37647247,8.55024815,513.04620361,3,5,1
1326899779.96852160,47.37647247,8.55024719,513.04132080,3,5,1
1326899780.02152753,47.37647247,8.55024719,513.03643799,3,5,1
1326899780.06955552,47.37647247,8.55024719,513.03149414,3,5,1
1326899780.11773944,47.37647247,8.55024719,513.02648926,3,5,1
1326899780.16948152,47.37647247,8.55024815,513.14611816,3,5,1
1326899780.21749997,47.37647247,8.55024815,513.14160156,3,5,1
1326899780.26862597,47.37647247,8.55024815,513.13696289,3,5,1
1326899780.31764603,47.37647247,8.55024815,513.13232422,3,5,1
1326899780.36950684,47.37647247,8.55024815,513.12768555,3,5,1
1326899780.41750669,47.37646866,8.55024910,513.24658203,3,5,1
1326899780.46939969,47.37646866,8.55024910,513.24237061,3,5,1
1326899780.51755047,47.37646866,8.55024910,513.23809814,3,5,1
1326899780.56949663,47.37646866,8.55024910,513.23382568,3,5,1
1326899780.61739302,47.37646866,8.55024910,513.22949219,3,5,1
1326899780.66956997,47.37646866,8.55025005,513.33856201,3,5,1
1326899780.71751809,47.37646866,8.55025005,513.33459473,3,5,1
1326899780.76856303,47.37646866,8.55025005,513.33062744,3,5,1
1326899780.82166409,47.37646866,8.55025005,513.32659912,3,5,1
1326899780.86952090,47.37646866,8.55025005,513.32257080,3,5,1
1326899780.92050695,47.37646484,8.55025101,513.42523193,3,5,1
1326899780.96952152,47.37646484,8.55025005,513.42156982,3,5,1
1326899781.02052951,47.37646484,8.55025005,513.41790771,3,5,1
1326899781.06956148,47.37646484,8.55025005,513.41418457,3,5,1
1326899781.11751008,47.37646484,8.55025005,513.41040039,3,5,1
1326899781.16864657,47.37646484,8.55025196,513.49670410,3,5,1
1326899781.21721506,47.37646484,8.55025196,513.49322510,3,5,1
1326899781.26954770,47.37646484,8.55025196,513.48968506,3,5,1
1326899781.31766272,47.37646484,8.55025196,513.48614502,3,5,1
1326899781.36947942,47.37646484,8.55025196,513.48254395,3,5,1
1326899781.41712236,47.37646484,8.55025196,513.55224609,3,5,1
1326899781.46862030,47.37646484,8.55025196,513.54882812,3,5,1
1326899781.51750755,47.37646484,8.55025196,513.54541016,3,5,1
1326899781.56865239,47.37646484,8.55025196,513.54193115,3,5,1
1326899781.61763906,47.37646484,8.55025196,513.53839111,3,5,1
1326899781.66950297,47.37646484,8.55025291,513.59893799,3,5,1
1326899781.71698356,47.37646484,8.55025291,513.59558105,3,5,1
1326899781.76949668,47.37646484,8.55025196,513.59222412,3,5,1
1326899781.82096934,47.37646484,8.55025196,513.58880615,3,5,1
1326899781.86896729,47.37646484,8.55025196,513.58538818,3,5,1
1326899781.91751575,47.37646484,8.55025291,513.64459229,3,5,1
1326899781.96948075,47.37646484,8.55025291,513.64135742,3,5,1
1326899782.02050042,47.37646484,8.55025291,513.63800049,3,5,1
1326899782.06881499,47.37646484,8.55025291,513.63470459,3,5,1
1326899782.12053514,47.37646484,8.55025291,513.63128662,3,5,1
1326899782.16953945,47.37646484,8.55025387,513.68646240,3,5,1
1326899782.21680713,47.37646484,8.55025387,513.68322754,3,5,1
1326899782.26871753,47.37646484,8.55025387,513.67993164,3,5,1
1326899782.31759667,47.37646484,8.55025387,513.67657471,3,5,1
1326899782.36878061,47.37646484,8.55025387,513.67315674,3,5,1
1326899782.41665316,47.37646484,8.55025482,513.73492432,3,5,1
1326899782.46952558,47.37646484,8.55025482,513.73168945,3,5,1
1326899782.52051020,47.37646484,8.55025482,513.72845459,3,5,1
1326899782.56948209,47.37646484,8.55025482,513.72521973,3,5,1
1326899782.62062764,47.37646484,8.55025482,513.72192383,3,5,1
1326899782.66878891,47.37646484,8.55025578,513.78680420,3,5,1
1326899782.71749473,47.37646484,8.55025578,513.78375244,3,5,1
1326899782.76871991,47.37646484,8.55025578,513.78063965,3,5,1
1326899782.82164073,47.37646484,8.55025578,513.77746582,3,5,1
1326899782.86959004,47.37646484,8.55025578,513.77429199,3,5,1
1326899782.92063117,47.37646484,8.55025578,513.82531738,3,5,1
1326899782.96950817,47.37646484,8.55025578,513.82226562,3,5,1
1326899783.01755047,47.37646484,8.55025578,513.81909180,3,5,1
1326899783.06849408,47.37646484,8.55025578,513.81585693,3,5,1
1326899783.11752772,47.37646484,8.55025482,513.81262207,3,5,1
1326899783.16852593,47.37646484,8.55025387,513.86444092,3,5,1
1326899783.22154737,47.37646484,8.55025387,513.86126709,3,5,1
1326899783.26853943,47.37646484,8.55025387,513.85809326,3,5,1
1326899783.32063365,47.37646484,8.55025387,513.85491943,3,5,1
1326899783.36973834,47.37646484,8.55025387,513.85162354,3,5,1
1326899783.42055249,47.37646103,8.55025196,513.90942383,3,5,1
1326899783.46855855,47.37646103,8.55025196,513.90631104,3,5,1
1326899783.51751828,47.37646103,8.55025196,513.90313721,3,5,1
1326899783.56856227,47.37646103,8.55025196,513.89996338,3,5,1
1326899783.62553596,47.37646103,8.55025196,513.89672852,0,5,1
1326899783.66949320,47.37646103,8.55025101,513.95520020,0,5,1
